| time (UTC) | temp F | wind direction | speed MPH | gust MPH | rain 1hr in | rain 24hr in | rain mn in | humidity % | barometer mb |
| 20260503184506 | 75 | 338 | 3.0 | 11.0 | 0.00 | 0.00 | 0.00 | 61 | 1010.2 |
| 20260503183003 | 77 | 359 | 3.0 | 12.0 | 0.00 | 0.00 | 0.00 | 58 | 1010.3 |
| 20260503181505 | 79 | 337 | 3.0 | 6.0 | 0.00 | 0.00 | 0.00 | 56 | 1010.2 |
| 20260503180003 | 0 | 0.0 | 0.0 | 0.00 | 0.00 | 0.00 | |||
| 20260503174502 | 0 | 0.0 | 0.0 | 0.00 | 0.00 | 0.00 | |||
| 20260503081503 | 51 | 124 | 1.0 | 2.0 | 0.00 | 0.00 | 0.00 | 94 | 1012.9 |
| 20260503071510 | 51 | 114 | 0.0 | 1.0 | 0.00 | 0.00 | 0.00 | 93 | 1013.2 |
| 20260503054506 | 52 | 359 | 1.0 | 3.0 | 0.00 | 0.00 | 0.00 | 92 | 1013.6 |
| 20260503053006 | 53 | 299 | 0.0 | 4.0 | 0.00 | 0.00 | 0.00 | 92 | 1013.8 |
| 20260503051505 | 53 | 287 | 1.0 | 3.0 | 0.00 | 0.00 | 0.00 | 91 | 1014.0 |
| 20260503044505 | 54 | 345 | 0.0 | 2.0 | 0.00 | 0.00 | 0.00 | 91 | 1013.8 |
| 20260503040007 | 54 | 318 | 4.0 | 5.0 | 0.00 | 0.00 | 0.00 | 89 | 1013.7 |
| 20260503034506 | 55 | 354 | 1.0 | 3.0 | 0.00 | 0.00 | 0.00 | 89 | 1013.9 |
| 20260503033008 | 55 | 354 | 1.0 | 4.0 | 0.00 | 0.00 | 0.00 | 88 | 1013.7 |
| 20260503030009 | 56 | 354 | 0.0 | 3.0 | 0.00 | 0.00 | 0.00 | 87 | 1013.6 |
| 20260503024505 | 56 | 354 | 3.0 | 6.0 | 0.00 | 0.00 | 0.00 | 86 | 1013.3 |
| 20260503023008 | 57 | 332 | 1.0 | 3.0 | 0.00 | 0.00 | 0.00 | 86 | 1013.1 |
| 20260503021510 | 57 | 328 | 3.0 | 6.0 | 0.00 | 0.00 | 0.00 | 85 | 1013.3 |
| 20260503020010 | 57 | 306 | 2.0 | 4.0 | 0.00 | 0.00 | 0.00 | 84 | 1013.3 |
| 20260503014506 | 58 | 325 | 2.0 | 5.0 | 0.00 | 0.00 | 0.00 | 83 | 1013.4 |
| 20260503013005 | 58 | 314 | 3.0 | 4.0 | 0.00 | 0.00 | 0.00 | 84 | 1013.5 |
| 20260503011507 | 57 | 321 | 3.0 | 8.0 | 0.00 | 0.00 | 0.00 | 85 | 1013.4 |
| 20260503010007 | 57 | 330 | 4.0 | 10.0 | 0.00 | 0.00 | 0.00 | 85 | 1013.3 |
| 20260503003008 | 59 | 318 | 4.0 | 11.0 | 0.00 | 0.00 | 0.00 | 81 | 1013.3 |
| 20260503000007 | 61 | 339 | 5.0 | 11.0 | 0.00 | 0.00 | 0.00 | 77 | 1013.4 |
| 20260502234507 | 61 | 321 | 5.0 | 8.0 | 0.00 | 0.00 | 0.00 | 76 | 1013.6 |
| 20260502231506 | 62 | 308 | 5.0 | 11.0 | 0.00 | 0.00 | 0.00 | 75 | 1013.9 |
| 20260502230009 | 61 | 330 | 7.0 | 12.0 | 0.00 | 0.00 | 0.00 | 76 | 1014.1 |
| 20260502223004 | 61 | 283 | 6.0 | 13.0 | 0.00 | 0.00 | 0.00 | 77 | 1014.3 |
| 20260502220009 | 62 | 270 | 5.0 | 10.0 | 0.00 | 0.00 | 0.00 | 76 | 1014.6 |
| 20260502214504 | 61 | 283 | 7.0 | 12.0 | 0.00 | 0.00 | 0.00 | 78 | 1014.5 |
| 20260502213006 | 61 | 317 | 3.0 | 9.0 | 0.00 | 0.00 | 0.00 | 79 | 1014.5 |
| 20260502211508 | 60 | 299 | 4.0 | 10.0 | 0.00 | 0.00 | 0.00 | 79 | 1014.7 |
| 20260502210007 | 59 | 288 | 5.0 | 13.0 | 0.00 | 0.00 | 0.00 | 79 | 1014.9 |
| 20260502204504 | 59 | 310 | 3.0 | 11.0 | 0.00 | 0.00 | 0.00 | 79 | 1015.2 |
| 20260502203008 | 60 | 328 | 8.0 | 12.0 | 0.00 | 0.00 | 0.00 | 75 | 1015.2 |
| 20260502201506 | 60 | 4 | 4.0 | 10.0 | 0.00 | 0.00 | 0.00 | 79 | 1015.3 |
| 20260502200006 | 60 | 338 | 7.0 | 11.0 | 0.00 | 0.00 | 0.00 | 75 | 1015.3 |
| 20260502191505 | 58 | 285 | 4.0 | 8.0 | 0.00 | 0.00 | 0.00 | 79 | 1015.9 |
| 20260502190010 | 57 | 266 | 3.0 | 8.0 | 0.00 | 0.00 | 0.00 | 80 | 1016.0 |